Volver al catálogo

OPS 0856 DEB

ActivoPO
NORAD 24676·DEBRIS·🇺🇸 United States

Lanzado Aug 19, 1966 desde Vandenberg Space Force Base

Loading…

Próximos Pases (próximas 24 horas)

TLE

ActualizadoSource: Space-Track

Época: Sep 13, 2026, 19:39 UTC

1 24676U 66077Q   26256.81942023 -.00001099  00000-0 -31521-1 0  9995
2 24676  88.4159  41.2072 2072022 163.4590 204.5857  9.03296284563470

Sigue OPS 0856 DEB en tiempo real con AllMySat

Download on the App Store